This is the latest recevied weather packets stored in our database for station/object F4ELU-13. If no packets are shown the sender has not sent any weather packets the latest 1 day(s).
| Time | Temp. | Humidity | Pressure | Rain* | Wind** | Luminosity | Snow |
|---|---|---|---|---|---|---|---|
| 1777947483 | 11.67° C | 99% | 1009.3 hPa | 0.25 mm | 0 m/s | - | - |
| 1777946943 | 11.67° C | 99% | 1009.1 hPa | 0.25 mm | 0 m/s | - | - |
| 1777946403 | 11.67° C | 99% | 1009.3 hPa | 0.25 mm | 0 m/s | - | - |
| 1777946043 | 11.67° C | 99% | 1009.2 hPa | 0.25 mm | 0 m/s | - | - |
| 1777945503 | 11.67° C | 99% | 1009.3 hPa | 0.25 mm | 0 m/s | - | - |
| 1777944963 | 11.67° C | 99% | 1009.3 hPa | 0.25 mm | 0 m/s | - | - |
| 1777944423 | 11.67° C | 99% | 1009.4 hPa | 0.25 mm | 0 m/s | - | - |
| 1777943883 | 11.67° C | 99% | 1009.6 hPa | 0.25 mm | 0 m/s | - | - |
| 1777943343 | 11.67° C | 99% | 1009.5 hPa | 0.25 mm | 0 m/s | - | - |
| 1777942803 | 11.67° C | 99% | 1009.9 hPa | 0.25 mm | 0 m/s | - | - |
| 1777942443 | 11.67° C | 99% | 1009.9 hPa | 0.51 mm | 0 m/s | - | - |
| 1777941903 | 11.67° C | 99% | 1010 hPa | 0.51 mm | 0.45 m/s, 154° | - | - |
| 1777941363 | 11.67° C | 99% | 1010 hPa | 1.02 mm | 0 m/s | - | - |
| 1777940823 | 11.67° C | 99% | 1010.2 hPa | 1.02 mm | 0 m/s | - | - |
| 1777940283 | 12.22° C | 99% | 1010.4 hPa | 0.51 mm | 0 m/s | - | - |
| 1777939743 | 12.22° C | 99% | 1010.3 hPa | 1.02 mm | 0 m/s | - | - |
| 1777939203 | 12.22° C | 98% | 1010.4 hPa | 1.52 mm | 0 m/s | - | - |
| 1777938843 | 12.22° C | 98% | 1010.4 hPa | 1.27 mm | 0 m/s | - | - |
| 1777938303 | 12.22° C | 97% | 1010.5 hPa | 1.27 mm | 0 m/s | - | - |
| 1777937763 | 12.22° C | 97% | 1010.6 hPa | 1.02 mm | 0.89 m/s, 168° | - | - |
| 1777937223 | 12.22° C | 96% | 1010.6 hPa | 1.02 mm | 0 m/s | - | - |
| 1777936683 | 12.78° C | 95% | 1010.8 hPa | 1.02 mm | 0.45 m/s, 199° | - | - |
* Rain latest hour (hover to see other rain measurements)
** Current wind speed in m/s (hover to see current wind gust speed)